Погода в Покрове

Украина / Днепропетровская область     47°39′12″N   34°05′03″E
темп.,
°C
ветер,
м/с
пор.,
м/с
влажн.,
%
обл.,
%
осадки,
мм/ч
давл.,
гПа
погр.,
м
29 июля, чт
чт2900:00+23з235580 0.0 101446
03:00+21ююз357726 1.6 1014116
06:00+21юз37840 0.0 1012166
09:00+27зюз34630 0.0 1012490
12:00+33зюз34391 0.0 10111867
15:00+34з3531100 0.0 10103014
18:00+24сз3673100 2.5 1010204
21:00+22юв2280100 12.2 101141
30 июля, пт
пт3000:00+23ю378351 0.9 1010155
03:00+22юз368468 0.9 1009123
06:00+21зюз498746 0.0 1009246
09:00+25з5670100 0.0 1009577
12:00+28з345069 0.0 10091302
15:00+27з4456100 0.2 1008604
18:00+25зсз586698 0.1 1008306
21:00+25сз486981 0.3 1008266
31 июля, сб
сб3100:00+24сз377182 0.0 1010221
03:00+21ссз36720 0.0 1010108
06:00+21ссз357068 0.0 101088
09:00+26ссв34550 0.0 1011531
12:00+30с44370 0.0 10112109
15:00+32с44331 0.0 10102508
18:00+31ссв24331 0.0 10102366
21:00+26в22460 0.0 101116
1 августа, вс
вс100:00+24ссв22500 0.0 101111
03:00+23сз11530 0.0 101111
06:00+22св22580 0.0 101221
09:00+28в11440 0.0 1012347
12:00+31с22330 0.0 10112050
15:00+33с22281 0.0 10102554
18:00+33с12282 0.0 10102535
21:00+27ю22410 0.0 101011
2 августа, пн
пн200:00+26ююв22440 0.0 101011
03:00+24з22480 0.0 101013
06:00+23зсз22555 0.0 101011
09:00+29ююз22420 0.0 1010408
12:00+33юз34310 0.0 10101640
15:00+35ююз33270 0.0 10082538
18:00+33ююв56323 0.0 1007682
21:00+29з81538100 0.0 1009708